This is the latest recevied weather packets stored in our database for station/object KA9CBS. If no packets are shown the sender has not sent any weather packets the latest 10 day(s).
| Time | Temp. | Humidity | Pressure | Rain* | Wind** | Luminosity | Snow |
|---|---|---|---|---|---|---|---|
| 1777988559 | 15° C | 94% | 1010.1 hPa | 8.89 mm | - | 9 W/m² | - |
| 1777988256 | 15° C | 93% | 1010.1 hPa | 7.87 mm | - | 8 W/m² | - |
| 1777987952 | 15° C | 92% | 1010.1 hPa | 4.83 mm | - | 9 W/m² | - |
| 1777987648 | 15.56° C | 91% | 1009.9 hPa | 4.83 mm | - | 10 W/m² | - |
| 1777987346 | 15.56° C | 89% | 1010.1 hPa | 6.1 mm | - | 8 W/m² | - |
| 1777987044 | 16.11° C | 86% | 1009.7 hPa | 8.89 mm | - | 8 W/m² | - |
| 1777986741 | 16.67° C | 83% | 1009.7 hPa | 6.1 mm | - | 9 W/m² | - |
| 1777986438 | 17.22° C | 79% | 1009.8 hPa | 0 mm | - | 5 W/m² | - |
| 1777986137 | 16.67° C | 80% | 1009.6 hPa | 0 mm | - | 0 W/m² | - |
| 1777985833 | 16.67° C | 79% | 1009.1 hPa | 0 mm | - | 3 W/m² | - |
| 1777985531 | 17.22° C | 78% | 1008.9 hPa | 0 mm | - | 5 W/m² | - |
| 1777985227 | 17.22° C | 77% | 1008.9 hPa | 0 mm | - | 5 W/m² | - |
| 1777984924 | 16.67° C | 77% | 1008.7 hPa | 0 mm | - | 4 W/m² | - |
| 1777984619 | 17.22° C | 80% | 1008.6 hPa | 0 mm | - | 6 W/m² | - |
| 1777984316 | 17.22° C | 76% | 1008.5 hPa | 0 mm | - | 7 W/m² | - |
| 1777984013 | 17.78° C | 74% | 1008.6 hPa | 0 mm | - | 9 W/m² | - |
| 1777983710 | 17.78° C | 74% | 1008.4 hPa | 0 mm | - | 12 W/m² | - |
| 1777983407 | 17.78° C | 74% | 1008.3 hPa | 0 mm | - | 15 W/m² | - |
| 1777983103 | 17.78° C | 74% | 1008.1 hPa | 0 mm | - | 23 W/m² | - |
| 1777982800 | 17.78° C | 73% | 1008.3 hPa | 0 mm | - | 15 W/m² | - |
| 1777982496 | 17.78° C | 73% | 1007.9 hPa | 0 mm | - | 9 W/m² | - |
| 1777982195 | 17.22° C | 73% | 1007.9 hPa | 0 mm | - | 15 W/m² | - |
| 1777981893 | 17.22° C | 74% | 1008 hPa | 0 mm | - | 16 W/m² | - |
| 1777981590 | 17.22° C | 75% | 1007.9 hPa | 0 mm | - | 13 W/m² | - |
| 1777981286 | 17.22° C | 74% | 1007.8 hPa | 0 mm | - | 9 W/m² | - |
* Rain latest hour (hover to see other rain measurements)
** Current wind speed in m/s (hover to see current wind gust speed)